Regional Weather Roundup
Issued by NWS

Home | Current Version | Previous Version | Text Only | Print | Product List | Glossary On
Versions: 1 2 3 4 5 6 7 8 9 10 11 12 13 14 15 16 17 18 19 20 21 22 23 24 25 26 27 28 29 30 31 32 33 34 35 36 37 38 39 40 41 42 43 44 45 46 47 48 49 50
309
ASUS43 KDTX 271510
RWRMI
MICHIGAN HOURLY REGIONAL WEATHER ROUNDUP
NATIONAL WEATHER SERVICE DETROIT/PONTIAC MI
1100 AM EDT FRI MAY 27 2016

NOTE: "FAIR" INDICATES FEW OR NO CLOUDS BELOW 12,000 FEET WITH NO
SIGNIFICANT WEATHER AND/OR OBSTRUCTION TO VISIBILITY.

MIZ047>049-052>055-059>063-066>070-074>076-081>083-271600-
SOUTHEAST LOWER MICHIGAN

CITY           SKY/WX    TMP DP  RH WIND       PRES   REMARKS
ADRIAN         SUNNY     75  63  66 S8        30.00R
ALMA           CLOUDY    74  68  80 SE3G17    29.97R
ANN ARBOR      SUNNY     76  66  71 S6        29.98S
BAD AXE        MOSUNNY   76  65  67 NE3       29.98S
CARO           SUNNY     78  66  64 S6        29.96S
DETROIT CITY   MOSUNNY   80  65  59 VRB6      29.98R
DETROIT        MOSUNNY   77  66  68 SW7       29.99S
FLINT          PTSUNNY   80  65  59 CALM      29.97S
GROSSE ILE     SUNNY     72  66  83 S9        29.98S
HILLSDALE      MOSUNNY   73  60  64 SW3       30.00S
HOWELL         MOSUNNY   78  67  69 S3        29.98S

CITY           SKY/WX    TMP DP  RH WIND       PRES   REMARKS
JACKSON        SUNNY     78  66  66 S6        29.98R
LAMBERTVILLE   SUNNY     78  65  64 S6        30.00S
LANSING        MOSUNNY   77  67  71 CALM      29.98R
LAPEER         FAIR      77  62  59 E3        29.98S
MASON          SUNNY     76  67  71 SE5       29.98R
MONROE         SUNNY     77  67  71 S9        29.98S
MT. CLEMENS    PTSUNNY   79  68  69 SE8       29.97R
PONTIAC        MOSUNNY   78  65  63 S7        29.97S
PORT HOPE        N/A     54  54 100 E9        29.98R
PORT HURON     SUNNY     77  64  65 CALM      29.98R
TRI CITIES     CLOUDY    80  63  55 SE6       29.96S
MIDLAND        FAIR      78  64  63 SE7       29.95R
TROY           SUNNY     80  67  63 S3        30.00R
SAGINAW HB     PTSUNNY   77  61  57 SE3       29.96S
$$
MIZ043>046-050>051-056>058-064>065-071>073-077>080-271600-
SOUTHWEST LOWER MICHIGAN

CITY           SKY/WX    TMP DP  RH WIND       PRES   REMARKS
BATTLE CREEK   CLOUDY    74  65  73 S7        29.97S
BENTON HARBOR  MOSUNNY   74  64  71 S10       29.93S
BIG RAPIDS     PTSUNNY   73  69  87 S5        29.95R
COLDWATER      CLOUDY    75  65  70 S6        29.98S
FREMONT        CLOUDY    72  71  95 SE5       29.94S
HOLLAND        SUNNY     75  66  73 SW5       29.95R
GRAND RAPIDS   PTSUNNY   80  68  66 S7        29.95R
IONIA          FAIR      77  67  71 E7        29.95R
KALAMAZOO      CLOUDY    76  64  66 S12       29.96S
LUDINGTON      CLOUDY    68  66  93 SE5       29.93R FOG
MARSHALL       CLOUDY    77  65  66 S8        29.97S
MOUNT PLEASANT MOSUNNY   76  67  74 S5        29.96R
MUSKEGON       PTSUNNY   75  63  66 S13       29.94R
SOUTH HAVEN    CLOUDY    75  65  71 S6        29.94R
$$
MIZ016>042-271600-
NORTHERN LOWER MICHIGAN

CITY           SKY/WX    TMP DP  RH WIND       PRES   REMARKS
ALPENA         SUNNY     72  62  71 CALM      29.96F
BEAVER ISLAND  SUNNY     69  61  76 E7        29.93R
BELLAIRE       SUNNY     80  62  53 CALM      29.92S
CADILLAC       MOSUNNY   78  64  63 S7        29.95R
CHARLEVOIX     SUNNY     74  63  69 E5        29.95R
FRANKFORT      CLOUDY    78  66  67 CALM      29.92R
GAYLORD        SUNNY     77  59  53 S6        29.95F
GRAYLING       SUNNY     79  61  53 S3        29.96S
HARBOR SPRINGS SUNNY     74  62  65 E6        29.92S
HOUGHTON LAKE  SUNNY     78  60  53 S8        29.96S
MANISTEE       CLOUDY    75  64  69 SE3       29.93R
OSCODA         MOSUNNY   62  57  82 E5        29.97F
PELLSTON       SUNNY     74  59  59 VRB7      29.93F
ROGERS CITY    SUNNY     67  64  89 NE5       29.96F
TRAVERSE CITY  PTSUNNY   78  64  61 NE5       29.90R
$$
MIZ007>008-015-271600-
EASTERN UPPER MICHIGAN

CITY           SKY/WX    TMP DP  RH WIND       PRES   REMARKS
KINROSS          N/A     64  63  94 E5        29.95F
MACKINAC ISLAN SUNNY     60  59  97 NE5       29.94S
NEWBERRY       SUNNY     71  63  75 S3        29.92F
S. S. MARIE    CLOUDY    61  59  93 SE5       29.95F
MUNISING         N/A     70  63  78 VRB3      29.90R
$$
MIZ004>006-011>014-085-271600-
CENTRAL UPPER MICHIGAN

CITY           SKY/WX    TMP DP  RH WIND       PRES   REMARKS
MANISTIQUE     CLOUDY    59  58  97 S3        29.93R
ESCANABA       SUNNY     64  57  77 E6        29.92R
MENOMINEE      CLOUDY    63  57  82 E7        29.91R
SAWYER-GWINN   SUNNY     66  61  82 CALM      29.92R
$$
MIZ001>003-009>011-084-271600-
WESTERN UPPER MICHIGAN

CITY           SKY/WX    TMP DP  RH WIND       PRES   REMARKS
IRON MOUNTAIN  CLOUDY    72  60  66 S3        29.90R
HOUGHTON       CLOUDY    59  57  93 CALM      29.91R FOG
COPPER HARBOR    N/A     46  45  96 CALM      29.91R
IRONWOOD       CLOUDY    59  59 100 CALM      29.90R
$$

ABBREVIATIONS USED IN REMARKS
   TC - TEMPERATURE IN CELSIUS
  WCI - WIND CHILL INDEX
   HX - HEAT INDEX
  VSB - VISIBILITY





USA.gov is the U.S. government's official web portal to all federal, state and local government web resources and services.